Probability
0 0 0 3 3 0 0 0 0 0 0 0 0 0 0 0 0 0 0 0 0 0 0 0 0 0 0 0 0 0 0 0 0 0 0 0 0 0 0 0 0 0 0
0 0 0 3 3 3 0 0 0 0 0 0 0 0 0 0 0 0 0 0 0 0 0 0 0 0 0 0 0 0 0 0 0 0 0 0 0 0 0 0 0 0 0
0 0 0 0 3 3 3 0 0 0 0 0 0 0 0 0 0 0 0 0 0 0 0 0 0 0 0 0 0 0 0 0 0 0 0 0 0 0 0 0 0 0 0
0 0 0 0 0 3 3 3 0 0 0 0 0 0 0 0 0 0 0 0 0 0 0 0 0 0 0 0 0 0 0 0 0 0 0 0 0 0 0 0 0 0 0
0 0 0 0 0 0 3 3 3 0 0 0 0 0 0 0 0 0 0 0 0 0 0 0 0 0 0 0 0 0 0 0 0 0 0 0 0 0 0 0 0 0 0
0 0 0 0 0 0 3 3 3 0 0 0 0 0 0 0 0 0 0 0 0 0 0 0 0 0 0 0 0 0 0 0 0 0 0 0 0 0 0 0 0 0 0
0 0 0 0 0 0 0 3 3 3 0 0 0 0 0 0 0 0 0 0 0 0 0 0 0 0 0 0 0 0 0 0 0 0 0 0 0 0 0 0 0 0 0
0 0 0 0 0 0 0 3 3 3 0 0 0 0 0 0 0 0 0 0 0 0 0 0 0 0 0 0 0 0 0 0 0 0 0 0 0 0 0 0 0 0 0
0 0 0 0 0 0 0 0 3 3 3 0 0 0 0 0 0 0 0 0 0 0 0 0 0 0 0 0 0 0 0 0 0 0 0 0 0 0 0 0 0 0 0
0 0 0 0 0 0 0 0 3 3 0 0 0 0 0 0 0 0 0 0 0 0 0 0 0 0 0 0 0 0 0 0 0 0 0 0 0 0 0 0 0 0 0
0 0 0 0 0 0 0 0 0 3 0 0 0 0 0 0 0 0 0 0 0 0 0 0 0 0 0 0 0 0 0 0 0 0 0 0 0 0 0 0 0 0 0
0 0 0 0 0 0 0 0 0 0 0 0 0 0 0 0 0 0 0 0 0 0 0 0 0 0 0 0 0 0 0 0 0 0 0 0 0 0 0 0 0 0 0
0 0 0 0 0 0 0 0 0 0 0 0 0 0 0 0 0 0 0 0 0 0 0 0 0 0 0 0 0 0 0 0 0 0 0 0 0 0 0 0 0 0 0
0 0 0 0 0 0 0 0 0 0 0 0 0 0 0 0 0 0 0 0 0 0 0 0 0 0 0 0 0 0 0 0 0 0 0 0 0 0 0 0 0 0 0
0 0 0 0 0 0 0 0 0 0 0 0 0 0 0 0 0 0 0 0 0 0 0 0 0 0 0 0 0 0 0 0 0 0 0 0 0 0 0 0 0 0 0
0 0 0 0 0 0 0 0 0 0 0 0 0 0 0 0 0 0 0 0 0 0 0 0 0 0 0 0 0 0 0 0 0 0 0 0 0 0 0 0 0 0 0
0 0 0 0 0 0 0 0 0 0 0 0 0 0 0 0 0 0 0 0 0 0 0 0 0 0 0 0 0 0 0 0 0 0 0 0 0 0 0 0 0 0 0
0 0 0 0 0 0 0 0 0 0 0 0 0 0 0 0 0 0 0 0 0 0 0 0 0 0 0 0 0 0 0 0 0 0 0 0 0 0 0 0 0 0 0
0 0 0 0 0 0 0 0 0 0 0 0 0 0 0 0 0 0 0 0 0 0 0 0 0 0 0 0 0 0 0 0 0 0 0 0 0 0 0 0 0 0 0
0 0 0 0 0 0 0 0 0 0 0 0 0 0 0 0 0 0 0 0 0 0 0 0 0 0 0 0 0 0 0 0 0 0 0 0 0 0 0 0 0 0 0
0 0 0 0 0 0 0 0 0 0 0 0 0 0 0 0 0 0 0 0 0 0 0 0 0 0 0 0 0 0 0 0 0 0 0 0 0 0 0 0 0 0 0
0 0 0 0 0 0 0 0 0 0 0 0 0 0 0 0 0 0 0 0 0 0 0 0 0 0 0 0 0 0 0 0 0 0 0 0 0 0 0 0 0 0 0
0 0 0 0 0 0 0 0 0 0 0 0 0 0 0 0 0 0 0 0 0 0 0 0 0 0 0 0 0 0 0 0 0 0 0 0 0 0 0 0 0 0 0
0 0 0 0 0 0 0 0 0 0 0 0 0 0 0 0 0 0 0 0 0 0 0 0 0 0 0 0 0 0 0 0 0 0 0 0 0 0 0 0 0 0 0
0 0 0 0 0 0 0 0 0 0 0 0 0 0 0 0 0 0 0 0 0 0 0 0 0 0 0 0 0 0 0 0 0 0 0 0 0 0 0 0 0 0 0
0 0 0 0 0 0 0 0 0 0 0 0 0 0 0 0 0 0 0 0 0 0 0 0 0 0 0 0 0 0 0 0 0 0 0 0 0 0 0 0 0 0 0
Height
5858 5858 5859 5859 5860 5861 5861 5862 5862 5863 5863 5863 5863 5863 5863 5863 5863 5863 5862 5862 5862 5862 5862 5861 5861 5861 5861 5860 5860 5859 5859 5858 5858 5857 5857 5856 5855 5855 5854 5853 5853 5852 5852
5856 5856 5857 5857 5858 5858 5859 5860 5860 5860 5861 5861 5861 5861 5861 5861 5861 5861 5860 5860 5860 5860 5860 5859 5859 5859 5859 5859 5858 5858 5857 5857 5856 5856 5855 5854 5854 5853 5852 5852 5851 5850 5850
5854 5854 5854 5855 5856 5856 5857 5858 5858 5858 5858 5858 5859 5859 5859 5859 5859 5859 5858 5858 5858 5858 5858 5857 5857 5857 5857 5857 5856 5856 5855 5855 5854 5854 5853 5852 5852 5851 5850 5849 5849 5848 5847
5852 5852 5852 5853 5853 5854 5855 5855 5856 5856 5856 5856 5856 5856 5857 5857 5857 5857 5856 5856 5856 5856 5855 5855 5855 5855 5855 5854 5854 5853 5853 5853 5852 5851 5851 5850 5849 5849 5848 5848 5847 5846 5845
5849 5850 5850 5851 5851 5852 5852 5853 5853 5854 5854 5854 5854 5854 5854 5854 5854 5854 5854 5854 5853 5853 5853 5853 5853 5852 5852 5852 5851 5851 5850 5850 5849 5849 5848 5848 5847 5846 5846 5845 5844 5843 5842
5847 5848 5848 5849 5849 5849 5850 5850 5851 5851 5851 5852 5852 5852 5852 5852 5852 5852 5851 5851 5851 5851 5851 5850 5850 5850 5850 5849 5849 5848 5848 5847 5847 5846 5846 5845 5844 5843 5843 5842 5841 5840 5839
5845 5845 5846 5846 5847 5847 5847 5848 5848 5849 5849 5849 5849 5849 5849 5849 5849 5849 5849 5849 5849 5848 5848 5848 5847 5847 5847 5846 5846 5846 5845 5844 5844 5844 5843 5842 5841 5840 5840 5839 5838 5837 5836
5843 5843 5843 5844 5844 5845 5845 5845 5845 5845 5846 5846 5846 5846 5846 5846 5846 5846 5846 5846 5846 5846 5845 5845 5845 5844 5844 5843 5843 5843 5842 5841 5841 5840 5840 5839 5838 5837 5836 5836 5835 5833 5832
5841 5841 5841 5841 5841 5842 5842 5842 5842 5843 5843 5843 5843 5843 5843 5843 5843 5843 5843 5843 5843 5843 5842 5842 5841 5841 5841 5840 5840 5839 5839 5838 5838 5837 5836 5836 5835 5834 5833 5832 5831 5830 5829
5838 5838 5838 5838 5839 5839 5839 5839 5839 5840 5840 5840 5840 5840 5840 5840 5840 5840 5840 5840 5840 5840 5839 5839 5838 5837 5837 5837 5836 5836 5835 5835 5834 5833 5833 5832 5831 5830 5829 5828 5827 5825 5824
5836 5836 5836 5836 5836 5836 5836 5836 5836 5836 5836 5837 5837 5837 5837 5837 5837 5837 5837 5837 5836 5836 5836 5835 5835 5834 5833 5833 5833 5832 5832 5831 5830 5829 5828 5827 5826 5825 5824 5823 5822 5821 5819
5833 5833 5833 5833 5833 5833 5833 5833 5833 5833 5833 5833 5833 5833 5833 5834 5834 5834 5834 5833 5833 5833 5832 5832 5831 5830 5830 5829 5829 5828 5828 5827 5826 5825 5824 5823 5822 5821 5819 5818 5817 5815 5814
5831 5830 5830 5830 5829 5829 5829 5830 5830 5830 5830 5830 5830 5830 5830 5830 5830 5830 5830 5830 5829 5829 5829 5828 5827 5827 5826 5825 5824 5824 5823 5822 5821 5820 5819 5818 5817 5816 5814 5813 5811 5810 5808
5827 5827 5827 5827 5826 5826 5826 5826 5826 5826 5826 5826 5826 5826 5826 5826 5826 5826 5826 5826 5825 5825 5824 5824 5823 5822 5822 5821 5820 5819 5819 5818 5817 5815 5814 5813 5812 5810 5809 5807 5806 5804 5802
5824 5823 5823 5823 5823 5823 5822 5822 5822 5822 5822 5822 5822 5822 5822 5822 5822 5822 5822 5821 5821 5821 5820 5819 5819 5818 5817 5817 5816 5815 5814 5813 5811 5810 5809 5808 5806 5805 5803 5801 5799 5798 5796
5820 5820 5820 5820 5819 5819 5818 5818 5818 5817 5817 5818 5818 5818 5818 5818 5818 5818 5817 5817 5816 5816 5815 5815 5814 5813 5812 5811 5810 5809 5808 5807 5806 5805 5803 5802 5800 5799 5797 5795 5793 5791 5789
5816 5816 5816 5815 5815 5814 5814 5814 5813 5813 5813 5813 5813 5813 5813 5813 5813 5813 5812 5812 5811 5811 5810 5810 5809 5808 5807 5806 5805 5804 5803 5802 5801 5799 5798 5796 5794 5792 5790 5788 5785 5783 5780
5811 5811 5811 5811 5810 5810 5809 5809 5809 5809 5809 5808 5808 5808 5808 5808 5808 5808 5807 5807 5806 5806 5805 5804 5803 5802 5801 5800 5799 5798 5797 5796 5794 5793 5791 5789 5787 5785 5783 5780 5778 5775 5773
5806 5806 5806 5806 5805 5805 5804 5804 5804 5804 5804 5804 5804 5803 5803 5803 5802 5802 5802 5801 5800 5800 5799 5798 5797 5796 5795 5793 5792 5791 5790 5789 5788 5786 5784 5782 5780 5778 5775 5773 5770 5768 5765
5801 5801 5801 5800 5800 5799 5799 5799 5799 5798 5798 5798 5798 5798 5798 5797 5797 5796 5796 5795 5794 5793 5793 5791 5790 5789 5788 5787 5785 5784 5783 5782 5780 5779 5776 5774 5772 5769 5766 5764 5761 5759 5756
5795 5795 5795 5794 5794 5794 5793 5793 5793 5793 5792 5792 5792 5792 5792 5791 5791 5790 5789 5789 5788 5787 5786 5785 5783 5782 5781 5779 5778 5776 5775 5773 5772 5770 5768 5765 5763 5760 5757 5754 5752 5749 5746
5788 5788 5788 5788 5788 5787 5787 5787 5787 5787 5786 5786 5786 5786 5785 5785 5784 5783 5782 5781 5780 5780 5778 5777 5776 5774 5773 5771 5770 5768 5766 5764 5763 5761 5758 5756 5753 5750 5748 5745 5742 5738 5735
5781 5781 5781 5781 5781 5781 5781 5781 5780 5780 5780 5780 5779 5779 5779 5778 5777 5776 5776 5774 5773 5772 5771 5770 5768 5767 5765 5763 5761 5760 5758 5755 5753 5751 5749 5746 5743 5741 5738 5735 5731 5728 5725
5774 5774 5773 5773 5773 5774 5774 5774 5773 5773 5773 5773 5772 5772 5771 5771 5770 5769 5768 5767 5766 5764 5763 5762 5760 5758 5757 5755 5753 5751 5749 5746 5744 5742 5740 5737 5734 5731 5728 5725 5721 5718 5715
5766 5766 5766 5766 5766 5766 5767 5767 5766 5766 5766 5766 5765 5764 5764 5763 5762 5761 5760 5759 5758 5756 5755 5753 5751 5750 5748 5746 5744 5742 5740 5738 5736 5733 5731 5728 5725 5722 5718 5715 5711 5708 5704
5759 5759 5759 5759 5759 5759 5759 5759 5759 5759 5759 5758 5757 5757 5756 5755 5754 5753 5752 5750 5749 5747 5746 5744 5743 5741 5739 5737 5735 5733 5731 5728 5726 5724 5721 5718 5715 5712 5709 5705 5702 5698 5694
Wind_Speed
10 11 10 10 10 10 10 10 10 9 9 9 9 9 9 9 9 9 9 9 9 8 7 7 8 7 8 7 7 7 7 7 8 8 8 8 8 8 8 8 9 9 9
10 11 10 10 10 10 10 9 9 9 10 10 10 9 9 9 9 9 9 9 9 9 8 8 8 8 8 8 8 8 8 8 8 8 8 8 8 9 8 9 9 10 10
10 10 10 10 10 10 10 10 10 10 10 10 10 9 9 9 9 9 9 9 9 9 8 8 8 8 9 9 9 9 8 8 8 8 9 9 9 9 9 9 9 10 11
10 10 10 10 10 11 11 11 10 10 10 10 10 10 9 9 9 9 9 9 9 9 9 9 9 9 9 9 9 9 9 9 9 9 10 10 10 10 10 10 11 11 12
10 10 10 10 10 11 11 11 10 10 10 10 10 10 9 9 10 10 10 10 9 9 9 9 9 10 10 10 10 10 10 10 10 10 10 11 11 10 10 11 12 12 13
11 10 10 10 11 11 11 11 11 11 10 10 10 10 10 10 10 10 10 10 10 10 9 9 10 10 10 10 11 11 11 11 11 11 11 11 11 11 11 12 12 13 13
11 11 10 11 11 11 11 12 12 11 11 11 11 11 11 11 11 11 11 11 11 11 10 11 11 10 11 11 11 12 12 12 12 12 12 12 12 12 12 13 13 14 14
11 11 11 11 11 11 12 12 12 12 12 12 12 11 11 11 11 11 11 11 11 11 11 12 12 12 13 13 13 13 13 13 13 13 13 13 13 13 14 14 15 15 15
10 11 11 12 12 12 12 12 12 12 12 12 12 11 11 11 12 12 12 12 12 12 12 12 13 13 13 13 13 13 13 13 13 13 14 14 14 15 15 15 16 16 16
10 11 11 11 11 12 12 12 13 13 13 13 12 12 12 12 12 12 12 13 13 13 13 13 13 13 13 13 13 13 13 14 14 15 15 16 16 16 16 17 17 18 17
10 11 11 11 12 12 12 12 13 13 13 13 13 12 12 12 12 12 12 13 13 13 13 13 13 13 13 13 14 14 14 14 15 16 16 17 17 17 18 18 19 19 19
10 10 11 12 12 12 12 13 13 13 13 13 13 13 12 12 12 12 12 13 13 13 14 14 14 14 14 14 15 15 16 16 16 16 17 17 18 18 19 20 19 20 20
12 12 12 13 13 13 13 13 13 13 13 13 13 13 13 13 12 13 13 13 14 14 15 15 15 15 15 15 16 16 16 17 17 17 17 18 19 19 20 20 20 21 21
13 13 13 13 13 13 13 13 13 14 14 14 14 13 13 13 13 13 13 14 14 15 15 15 15 15 15 16 16 16 17 18 18 18 18 19 19 20 20 20 21 22 22
14 12 12 13 13 13 14 14 14 15 15 14 14 13 13 13 14 14 14 15 15 15 16 15 15 15 16 16 17 17 18 19 19 18 19 19 19 20 21 21 22 22 23
14 13 13 14 14 14 15 15 15 16 16 15 14 15 15 15 15 15 15 15 15 15 16 16 16 16 17 17 18 18 19 19 19 19 20 20 21 22 22 22 23 24 24
14 15 15 16 16 15 15 16 16 16 16 15 16 16 16 16 16 16 16 16 16 16 16 17 17 18 19 20 20 20 20 20 20 21 21 22 22 23 24 24 25 26 26
15 15 15 15 16 16 15 15 16 16 16 16 16 16 16 16 16 17 17 17 18 18 18 19 19 20 21 21 21 21 21 21 22 22 23 23 24 25 26 27 27 27 28
17 16 16 16 16 16 16 16 16 17 17 17 16 17 17 17 17 18 18 19 19 20 20 20 21 21 22 22 22 23 23 23 24 24 25 25 26 27 28 29 29 29 29
18 18 18 18 18 18 18 18 18 18 18 18 18 18 19 19 19 20 19 20 20 21 21 22 22 23 23 23 24 24 25 25 26 26 27 27 28 29 29 30 30 30 31
20 20 20 20 20 19 19 19 19 19 19 20 20 20 20 20 20 21 21 21 21 22 23 23 23 24 24 25 25 26 26 27 28 28 28 29 29 30 30 31 31 31 32
21 22 21 21 21 20 20 20 20 20 20 21 21 21 21 21 21 21 22 22 23 23 23 24 25 25 26 26 26 27 28 28 28 29 29 29 29 30 31 32 32 32 33
22 23 23 22 22 21 21 20 20 21 21 21 21 22 22 22 22 23 23 23 24 25 25 25 26 26 27 27 27 27 28 28 29 29 29 29 30 31 32 32 32 33 33
23 23 23 23 22 21 21 21 22 21 22 22 23 23 23 23 24 24 24 24 26 26 26 26 26 26 27 27 28 28 28 28 29 29 29 30 31 32 32 32 33 33 33
24 24 24 23 22 22 22 22 23 23 23 23 24 24 24 25 25 25 25 26 27 27 27 26 27 27 27 28 28 28 29 29 30 30 30 31 31 32 32 33 33 34 34
25 25 25 24 24 24 24 23 24 24 24 24 24 24 25 25 26 26 26 26 26 27 27 27 27 28 29 29 29 29 29 30 30 30 31 32 32 32 33 34 34 34 34
Wind_Direction
250 252 253 249 245 246 246 248 252 260 264 267 269 271 273 275 275 277 280 281 282 281 280 281 283 285 286 289 290 293 294 296 294 295 296 298 300 295 287 284 283 282 283
249 251 250 247 243 245 247 250 258 262 267 270 269 269 274 278 276 279 279 279 279 276 275 277 280 282 285 289 290 291 291 291 292 292 294 297 299 298 296 293 290 288 288
250 250 247 244 244 245 248 254 261 265 267 268 264 268 273 276 278 276 275 276 276 275 273 276 278 281 284 286 289 292 293 292 293 292 293 295 296 296 295 294 292 294 294
249 248 246 247 250 249 251 256 262 265 264 265 267 272 275 274 276 276 276 276 273 274 274 274 276 280 282 286 287 287 287 288 292 294 294 294 294 292 293 292 292 294 294
250 249 247 248 251 253 256 259 261 264 266 264 266 270 271 273 277 278 277 275 274 272 273 274 277 282 284 286 285 282 284 288 292 293 293 295 293 291 291 291 292 295 296
255 254 251 251 254 256 258 258 261 264 265 265 265 267 269 272 276 277 276 274 274 276 276 276 277 277 281 284 286 285 284 288 290 291 293 294 294 293 293 292 292 293 295
256 253 253 256 258 258 258 258 261 264 265 265 266 266 268 271 274 275 275 275 276 277 277 277 276 275 277 281 285 284 287 288 288 291 291 291 294 293 294 294 293 295 295
255 254 257 259 261 261 262 261 263 265 267 266 266 267 270 271 273 274 273 275 275 278 279 279 278 279 279 279 282 282 286 286 289 290 292 292 291 291 292 293 293 295 296
260 258 259 262 263 263 264 265 266 267 267 266 265 268 270 272 275 274 272 273 275 279 282 283 280 279 279 279 279 281 283 285 287 289 290 292 292 291 292 292 293 295 296
268 264 264 264 264 264 266 266 267 269 268 265 266 269 269 272 275 273 272 272 275 277 279 281 281 281 279 277 278 280 282 285 287 288 289 290 290 292 293 293 294 294 294
275 270 267 267 265 265 265 264 264 269 267 265 268 269 269 271 274 273 270 272 274 275 278 278 281 279 277 277 278 278 282 284 287 289 290 291 292 291 291 293 293 294 294
276 274 270 270 269 267 264 263 265 268 268 266 268 269 270 270 272 272 271 273 275 275 277 278 278 278 278 278 279 280 282 284 287 289 290 291 291 290 291 292 292 294 295
274 273 270 269 270 270 267 266 266 265 265 266 268 268 268 268 270 274 274 275 277 278 280 279 278 278 280 282 283 284 286 287 288 289 289 290 291 291 292 292 292 293 293
272 270 269 270 270 272 269 266 265 264 264 265 267 268 267 269 271 273 274 276 278 279 280 280 278 278 281 284 285 286 288 289 289 289 290 292 293 293 293 293 293 293 292
271 269 270 272 271 272 270 266 266 267 268 268 268 266 266 269 271 273 275 276 278 279 280 281 280 281 284 286 287 287 288 290 290 291 292 293 294 294 293 293 293 293 292
271 269 269 270 272 275 273 269 267 268 268 266 269 268 268 270 272 272 275 277 278 278 279 280 280 282 284 286 288 289 289 291 290 291 292 293 293 294 294 294 294 294 293
271 269 269 270 273 276 277 273 270 271 269 267 268 270 271 271 272 274 275 277 278 278 279 280 281 283 284 285 285 285 287 289 289 290 291 292 294 295 295 294 295 295 294
271 271 272 274 275 276 277 273 269 270 271 271 272 273 274 276 275 277 278 279 279 278 278 280 281 283 284 284 284 284 285 287 287 289 291 294 296 296 295 296 296 296 295
269 270 273 275 275 276 275 274 272 271 272 273 274 274 274 276 278 278 278 280 280 280 279 279 280 282 283 284 284 284 284 285 287 290 291 294 295 296 295 296 296 296 295
269 271 273 275 276 276 274 271 271 273 274 274 274 275 275 276 278 279 278 278 279 280 280 280 280 282 283 283 283 284 285 286 288 289 291 292 293 294 295 295 295 295 295
270 269 269 271 275 275 272 271 270 272 273 273 274 276 276 277 278 278 278 278 279 280 281 281 281 282 283 284 283 283 285 288 289 290 291 291 291 292 294 295 296 295 295
270 270 269 270 273 275 273 270 270 271 272 273 275 277 276 276 277 278 278 279 280 281 283 284 284 284 284 285 285 285 286 288 290 291 291 292 292 293 294 295 295 296 296
272 272 272 272 273 272 271 269 270 270 271 273 276 276 275 277 277 277 279 280 280 282 282 284 285 285 285 286 286 287 288 290 291 292 292 292 293 294 295 296 297 298 298
271 273 274 273 272 269 268 269 270 271 272 272 276 276 276 279 280 278 279 280 282 283 283 284 285 286 286 287 287 288 289 290 293 293 292 293 294 296 296 297 298 298 299
270 271 272 272 269 268 268 269 270 272 274 275 277 277 277 280 280 280 279 280 282 283 283 283 284 285 286 287 288 289 289 290 292 293 293 294 296 297 297 297 299 300 300
272 271 270 269 268 268 268 269 271 271 273 275 277 278 278 280 281 281 281 279 280 282 282 283 284 285 286 287 289 289 290 291 292 293 294 295 296 297 298 299 300 301 301